Regional Weather Roundup
Issued by NWS

Home | Current Version | Previous Version | Graphics & Text | Print | Product List | Glossary Off
Versions: 1 2 3 4 5 6 7 8 9 10 11 12 13 14 15 16 17 18 19 20 21 22 23 24 25 26 27 28 29 30 31 32 33 34 35 36 37 38 39 40 41 42 43 44 45 46 47 48 49 50

000
ASUS43 KTOP 060759
RWRKS

WEATHER ROUNDUP FOR KANSAS
NATIONAL WEATHER SERVICE GOODLAND KS
300 AM CDT FRI MAY 06 2016

NOTE:  "FAIR" INDICATES FEW OR NO CLOUDS BELOW 12,000 FEET WITH NO
SIGNIFICANT WEATHER AND/OR OBSTRUCTIONS TO VISIBILITY.

KSZ001>006-013>018-027>032-041>047-060900-
NORTHWEST KANSAS

CITY           SKY/WX    TMP DP  RH WIND       PRES   REMARKS
GOODLAND       CLOUDY    52  46  80 S12       30.03F
HAYS           CLEAR     54  39  58 CALM      30.05S
HILL CITY      CLEAR     57  46  66 SW3       30.04F
RUSSELL        PTCLDY    55  45  68 S9        30.03F
$$

KSZ061>065-074>080-084>089-060900-
SOUTHWEST KANSAS

CITY           SKY/WX    TMP DP  RH WIND       PRES   REMARKS
DODGE CITY     CLOUDY    54  43  66 S10       30.05F
ELKHART          N/A     52  45  77 SE12        N/A
GARDEN CITY    CLOUDY    56  44  64 SE14      30.04F
GREAT BEND     CLEAR     54  43  66 S6        30.05F
LIBERAL        CLOUDY    57  46  67 SE10      30.04F
$$

KSZ066>073-081>083-090>101-060900-
SOUTHEAST KANSAS

CITY           SKY/WX    TMP DP  RH WIND       PRES   REMARKS
CHANUTE        CLEAR     49  46  90 CALM      30.06S
COFFEYVILLE    CLEAR     50  48  93 CALM      30.06F
HUTCHINSON     CLOUDY    57  45  64 E3        30.05F
MEDICINE LODGE   N/A     55  46  71 CALM      30.05F
NEWTON         CLEAR     55  39  54 S7        30.08F
PARSONS        CLEAR     49  47  93 CALM      30.07F
WICHITA INTL   CLEAR     56  45  66 S3        30.05F
WICHITA JABRA  CLEAR     56  44  64 S5        30.05F
WINFIELD       CLEAR     54  46  74 CALM      30.39F
$$

KSZ007>012-019>026-033>040-048>060-102>105-060900-
NORTHEAST KANSAS

CITY           SKY/WX    TMP DP  RH WIND       PRES   REMARKS
CONCORDIA      CLEAR     57  41  55 S12       30.03F
EMPORIA        CLEAR     52  45  77 S7        30.05F
LAWRENCE       CLEAR     45  44  97 CALM      30.05F
MANHATTAN      CLEAR     48  43  82 CALM      30.04F
OLATHE IND     CLEAR     50  42  74 S5        30.06F
OLATHE EXE     CLEAR     52  43  71 S3        30.05F
SALINA         CLEAR     51  45  79 SE8       30.04F
TOPEKA BILLARD CLEAR     51  48  89 CALM      30.04F
TOPEKA FORBES  CLEAR     51  46  83 CALM      30.04F
$$




USA.gov is the U.S. government's official web portal to all federal, state and local government web resources and services.